FW7035 Weather Reports


time (UTC)temp
C
wind
direction
speed
KPH
gust
KPH
rain 1hr
cm
rain 24hr
cm
rain mn
cm
humidity
%
barometer
mb
20260505071525 16 181 8.0 8.0 0.00 0.00 0.00 59 1009.2
20260505071023 16 146 3.2 6.4 0.00 0.00 0.00 59 1009.5
20260505070520 16 185 3.2 4.8 0.00 0.00 0.00 59 1009.3
20260505070016 16 138 3.2 6.4 0.00 0.00 0.00 59 1009.1
20260505065512 16 148 3.2 6.4 0.00 0.00 0.00 59 1009.2
20260505065009 15 142 3.2 4.8 0.00 0.00 0.00 60 1009.4
20260505064506 16 134 3.2 4.8 0.00 0.00 0.00 59 1009.5
20260505064004 16 139 1.6 3.2 0.00 0.00 0.00 59 1009.2
20260505063501 16 133 4.8 4.8 0.00 0.00 0.00 59 1009.3
20260505062956 16 146 0.0 4.8 0.00 0.00 0.00 58 1009.4
20260505062454 16 125 1.6 3.2 0.00 0.00 0.00 58 1009.4
20260505061951 16 139 0.0 3.2 0.00 0.00 0.00 58 1009.6
20260505061449 16 158 1.6 4.8 0.00 0.00 0.00 58 1009.4
20260505060946 16 129 1.6 4.8 0.00 0.00 0.00 57 1009.3
20260505060443 16 152 1.6 4.8 0.00 0.00 0.00 56 1009.4
20260505055939 16 133 3.2 3.2 0.00 0.00 0.00 56 1009.5
20260505055435 17 141 0.0 6.4 0.00 0.00 0.00 55 1009.3
20260505054932 17 132 3.2 8.0 0.00 0.00 0.00 55 1009.4
20260505054429 17 146 4.8 4.8 0.00 0.00 0.00 55 1009.5
20260505053927 17 155 0.0 4.8 0.00 0.00 0.00 54 1009.6
20260505053424 17 228 6.4 8.0 0.00 0.00 0.00 54 1009.5
20260505052921 17 160 1.6 4.8 0.00 0.00 0.00 54 1009.5
20260505052418 17 145 0.0 6.4 0.00 0.00 0.00 53 1009.6
20260505051915 17 170 3.2 6.4 0.00 0.00 0.00 52 1009.6
20260505051412 18 236 6.4 11.3 0.00 0.00 0.00 52 1009.6
20260505050911 18 179 4.8 9.7 0.00 0.00 0.00 52 1009.5
20260505050409 17 187 4.8 6.4 0.00 0.00 0.00 52 1009.7
20260505041336 18 185 1.6 8.0 0.00 0.00 0.00 51 1009.5
20260505040833 17 140 4.8 6.4 0.00 0.00 0.00 51 1009.4
20260505040331 17 147 4.8 4.8 0.00 0.00 0.00 51 1009.5
20260505035827 17 146 8.0 8.0 0.00 0.00 0.00 51 1009.6
20260505035323 18 164 3.2 8.0 0.00 0.00 0.00 50 1009.2
20260505034821 18 192 8.0 8.0 0.00 0.00 0.00 49 1009.4
20260505034317 18 143 1.6 4.8 0.00 0.00 0.00 49 1009.1
20260505033814 18 194 4.8 8.0 0.00 0.00 0.00 49 1009.5
20260505033311 18 208 3.2 9.7 0.00 0.00 0.00 48 1009.2
20260505032809 18 198 6.4 11.3 0.00 0.00 0.00 48 1009.1
20260505032305 18 153 11.3 12.9 0.00 0.00 0.00 48 1009.4
20260505031803 18 244 3.2 4.8 0.00 0.00 0.00 48 1009.6
20260505031259 18 221 1.6 12.9 0.00 0.00 0.00 47 1009.3
20260505030756 18 186 4.8 12.9 0.00 0.00 0.00 47 1009.4
20260505030252 18 144 0.0 6.4 0.00 0.00 0.00 47 1009.4
20260505025747 19 170 3.2 9.7 0.00 0.00 0.00 46 1009.4
20260505025246 18 212 4.8 6.4 0.00 0.00 0.00 46 1009.2
20260505024744 18 203 3.2 6.4 0.00 0.00 0.00 46 1009.3
20260505024241 19 169 3.2 8.0 0.00 0.00 0.00 46 1009.3
20260505023738 19 194 8.0 9.7 0.00 0.00 0.00 45 1009.3
20260505023235 18 206 11.3 11.3 0.00 0.00 0.00 46 1009.4
20260505022732 18 195 6.4 11.3 0.00 0.00 0.00 45 1009.3
20260505022229 18 189 3.2 8.0 0.00 0.00 0.00 46 1009.4
20260505021726 18 148 1.6 8.0 0.00 0.00 0.00 46 1009.3
20260505021223 18 176 1.6 4.8 0.00 0.00 0.00 46 1009.2
20260505020719 19 151 3.2 6.4 0.00 0.00 0.00 45 1009.3
20260505020214 19 152 6.4 8.0 0.00 0.00 0.00 45 1009.1
20260505015712 19 157 1.6 6.4 0.00 0.00 0.00 44 1009.2
20260505015209 18 158 3.2 6.4 0.00 0.00 0.00 45 1009.1
20260505014705 18 159 3.2 4.8 0.00 0.00 0.00 45 1009.0
20260505014203 19 157 1.6 4.8 0.00 0.00 0.00 44 1008.9
20260505013700 19 138 3.2 6.4 0.00 0.00 0.00 44 1009.0
20260505013157 19 206 3.2 8.0 0.00 0.00 0.00 44 1008.9
20260505012655 19 155 1.6 3.2 0.00 0.00 0.00 43 1008.9
20260505012152 20 166 4.8 6.4 0.00 0.00 0.00 42 1008.7
20260505011652 19 188 4.8 8.0 0.00 0.00 0.00 42 1008.7
20260505011150 20 158 4.8 4.8 0.00 0.00 0.00 42 1008.8
20260505010645 20 199 1.6 4.8 0.00 0.00 0.00 42 1008.7
20260505010142 20 172 4.8 4.8 0.00 0.00 0.00 42 1008.8
20260505005638 20 194 1.6 4.8 0.00 0.00 0.00 42 1008.8
20260505005135 20 176 4.8 6.4 0.00 0.00 0.00 40 1008.6
20260505004632 20 178 3.2 6.4 0.00 0.00 0.00 40 1008.6
20260505004128 20 182 4.8 6.4 0.00 0.00 0.00 40 1008.6
20260505003626 20 188 3.2 4.8 0.00 0.00 0.00 40 1008.8
20260505003124 20 180 3.2 6.4 0.00 0.00 0.00 39 1008.4
20260505002620 20 194 3.2 6.4 0.00 0.00 0.00 39 1008.5
20260505002118 21 185 1.6 8.0 0.00 0.00 0.00 39 1008.6
20260505001615 21 141 6.4 8.0 0.00 0.00 0.00 38 1008.5
20260505001113 21 174 6.4 8.0 0.00 0.00 0.00 38 1008.6
20260505000609 21 185 3.2 4.8 0.00 0.00 0.00 38 1008.4
20260505000107 21 223 6.4 8.0 0.00 0.00 0.00 37 1008.5
20260504235603 21 97 3.2 8.0 0.00 0.00 0.00 36 1008.4
20260504235100 21 191 8.0 12.9 0.00 0.00 0.00 36 1008.6
20260504234557 21 202 4.8 12.9 0.00 0.00 0.00 37 1008.2
20260504234054 21 170 4.8 12.9 0.00 0.00 0.00 35 1008.2
20260504233549 21 188 4.8 9.7 0.00 0.00 0.00 35 1008.3
20260504233046 22 186 8.0 8.0 0.00 0.00 0.00 35 1008.3
20260504232543 22 192 3.2 8.0 0.00 0.00 0.00 34 1008.5
20260504232041 22 181 4.8 8.0 0.00 0.00 0.00 34 1008.4
20260504231537 22 144 12.9 14.5 0.00 0.00 0.00 34 1008.4
20260504231033 22 178 6.4 8.0 0.00 0.00 0.00 33 1008.5
20260504230530 22 191 4.8 14.5 0.00 0.00 0.00 33 1008.4
20260504230029 22 155 8.0 16.1 0.00 0.00 0.00 33 1008.4
20260504225526 23 144 9.7 25.7 0.00 0.00 0.00 33 1008.4
20260504225023 23 210 6.4 12.9 0.00 0.00 0.00 33 1008.5
20260504224519 22 118 8.0 16.1 0.00 0.00 0.00 33 1008.2
20260504224017 22 165 12.9 14.5 0.00 0.00 0.00 32 1008.2
20260504223513 22 213 11.3 14.5 0.00 0.00 0.00 32 1008.5
20260504223009 23 185 12.9 16.1 0.00 0.00 0.00 32 1008.2
20260504222506 23 227 14.5 14.5 0.00 0.00 0.00 32 1008.2
20260504222003 23 174 8.0 11.3 0.00 0.00 0.00 31 1008.2
20260504221500 23 186 6.4 11.3 0.00 0.00 0.00 32 1008.1
20260504220957 23 220 12.9 19.3 0.00 0.00 0.00 32 1008.0
20260504220454 23 222 12.9 16.1 0.00 0.00 0.00 30 1008.3
20260504215951 23 210 6.4 6.4 0.00 0.00 0.00 31 1008.1
20260504215447 24 149 16.1 19.3 0.00 0.00 0.00 29 1008.1
20260504214944 23 211 11.3 11.3 0.00 0.00 0.00 30 1008.1
20260504214440 23 196 8.0 9.7 0.00 0.00 0.00 30 1008.3
20260504213937 24 201 6.4 11.3 0.00 0.00 0.00 30 1008.3
20260504213433 24 231 11.3 14.5 0.00 0.00 0.00 30 1008.3
20260504212931 24 224 11.3 16.1 0.00 0.00 0.00 30 1008.3
20260504212426 23 160 9.7 12.9 0.00 0.00 0.00 30 1008.3
20260504211925 24 203 9.7 16.1 0.00 0.00 0.00 30 1008.4
20260504211420 24 282 3.2 4.8 0.00 0.00 0.00 31 1008.5
20260504210918 25 235 8.0 11.3 0.00 0.00 0.00 30 1008.4
20260504210415 24 181 11.3 19.3 0.00 0.00 0.00 30 1008.3
20260504205912 24 203 4.8 11.3 0.00 0.00 0.00 30 1008.3
20260504205410 24 167 16.1 24.1 0.00 0.00 0.00 29 1008.3
20260504204908 23 180 11.3 20.9 0.00 0.00 0.00 30 1008.4
20260504204406 23 212 11.3 11.3 0.00 0.00 0.00 31 1008.3
20260504203905 24 201 8.0 11.3 0.00 0.00 0.00 30 1008.3
20260504203402 23 249 8.0 12.9 0.00 0.00 0.00 30 1008.3
20260504202857 23 187 8.0 16.1 0.00 0.00 0.00 30 1008.6
20260504202354 23 209 12.9 20.9 0.00 0.00 0.00 29 1008.8
20260504201851 23 236 9.7 11.3 0.00 0.00 0.00 31 1008.8
20260504201349 23 220 4.8 6.4 0.00 0.00 0.00 32 1008.8
20260504200846 23 241 9.7 14.5 0.00 0.00 0.00 30 1008.8
20260504200342 23 234 8.0 17.7 0.00 0.00 0.00 31 1008.9
20260504195839 23 219 9.7 14.5 0.00 0.00 0.00 30 1009.0
20260504195334 23 217 12.9 17.7 0.00 0.00 0.00 30 1009.0
20260504194831 23 229 11.3 12.9 0.00 0.00 0.00 31 1008.9
20260504194327 23 229 14.5 14.5 0.00 0.00 0.00 31 1009.3
20260504193823 23 284 4.8 17.7 0.00 0.00 0.00 31 1009.3
20260504193321 23 237 8.0 14.5 0.00 0.00 0.00 32 1009.4
20260504192820 23 215 8.0 11.3 0.00 0.00 0.00 32 1009.6
20260504192317 23 162 17.7 22.5 0.00 0.00 0.00 31 1009.6
20260504191816 23 208 3.2 6.4 0.00 0.00 0.00 32 1009.7
20260504191313 23 252 8.0 17.7 0.00 0.00 0.00 32 1010.0
20260504190808 22 224 4.8 8.0 0.00 0.00 0.00 34 1009.8
20260504190304 22 237 8.0 22.5 0.00 0.00 0.00 32 1010.0
20260504185801 22 257 11.3 17.7 0.00 0.00 0.00 32 1010.3
20260504185258 22 224 12.9 16.1 0.00 0.00 0.00 34 1010.0
20260504184754 22 261 6.4 14.5 0.00 0.00 0.00 33 1010.2
20260504184250 22 215 8.0 17.7 0.00 0.00 0.00 33 1010.3
20260504183746 22 220 8.0 9.7 0.00 0.00 0.00 32 1010.5
20260504183243 22 264 3.2 9.7 0.00 0.00 0.00 31 1010.5
20260504182741 22 251 8.0 11.3 0.00 0.00 0.00 34 1010.2
20260504182238 21 208 4.8 20.9 0.00 0.00 0.00 33 1010.5
20260504181736 22 233 17.7 20.9 0.00 0.00 0.00 34 1010.6
20260504181233 21 296 3.2 11.3 0.00 0.00 0.00 31 1010.6
20260504180732 22 220 19.3 20.9 0.00 0.00 0.00 30 1011.0
20260504180230 21 262 4.8 11.3 0.00 0.00 0.00 33 1010.8
20260504175728 21 209 12.9 16.1 0.00 0.00 0.00 31 1010.8
20260504175224 21 344 6.4 11.3 0.00 0.00 0.00 33 1010.8
20260504174722 22 207 12.9 19.3 0.00 0.00 0.00 31 1011.0
20260504174220 21 286 8.0 14.5 0.00 0.00 0.00 31 1011.1
20260504173716 21 253 11.3 19.3 0.00 0.00 0.00 33 1010.9
20260504173213 21 206 6.4 14.5 0.00 0.00 0.00 30 1011.0
20260504172709 21 255 4.8 16.1 0.00 0.00 0.00 32 1011.2
20260504172206 21 205 6.4 17.7 0.00 0.00 0.00 32 1011.1
20260504171702 21 198 8.0 9.7 0.00 0.00 0.00 32 1011.1
20260504171200 21 192 9.7 20.9 0.00 0.00 0.00 33 1011.5
20260504170656 21 166 3.2 12.9 0.00 0.00 0.00 34 1011.3
20260504170154 20 262 6.4 19.3 0.00 0.00 0.00 32 1011.6
20260504160112 20 200 6.4 16.1 0.00 0.00 0.00 33 1012.3
20260504151039 18 182 6.4 8.0 0.00 0.00 0.00 34 1012.6
20260504150536 18 285 6.4 16.1 0.00 0.00 0.00 34 1012.7
20260504141002 17 275 1.6 12.9 0.00 0.00 0.00 37 1013.0
20260504140459 16 177 4.8 11.3 0.00 0.00 0.00 39 1012.6
20260504130423 14 151 6.4 6.4 0.00 0.00 0.00 47 1013.1
20260504110310 8 138 3.2 4.8 0.00 0.00 0.00 65 1013.7
20260504100228 8 118 3.2 4.8 0.00 0.00 0.00 65 1013.7
20260504081622 6 77 3.2 3.2 0.00 0.00 0.00 79 1014.2
20260504081117 6 114 1.6 3.2 0.00 0.00 0.00 79 1014.2
20260504080614 6 108 3.2 3.2 0.00 0.00 0.00 79 1014.2
20260504080111 6 98 1.6 3.2 0.00 0.00 0.00 79 1014.3